Home   Weather   Gjøvik   Past weeks

Flag for Norway Past Weather in Gjøvik, Norway — Yesterday and Last 2 Weeks

Now
32 °F

Chilly.


Feels Like: 32 °F
Forecast: 26 / 35 °F
Wind: No wind

Location: Lillehammer-Saetherengen

Current Time: Feb 28, 2017 at 8:46:22 am

Latest Report: Feb 28, 2017 at 8:00 am


Visibility: N/A

Pressure: 28.91 "Hg

Humidity: 97%

Dew Point: 31 °F

Location of GjøvikLocation

Past Weather in Gjøvik — Graph

°F

Gjøvik Temperature Yesterday

Maximum temperature yesterday: 39 °F (at 3:00 pm)
Minimum temperature yesterday: 23 °F (at 1:00 am)
Average temperature yesterday: 31 °F

High & Low Weather Summary for the Past Weeks

 TemperatureHumidityPressure
High42 °F (Feb 20, 2:00 am)97% (Feb 19, 8:00 am)30.69 "Hg (Feb 19, 8:00 am)
Low10 °F (Feb 25, 8:00 am)50% (Feb 24, 3:00 pm)28.61 "Hg (Feb 22, 4:00 pm)
Average26 °F86%29.65 "Hg
* Reported Feb 13 7:00 am — Feb 28 7:00 am, Gjøvik, Weather by CustomWeather, © 2017

Note: Actual official high and low records may vary slightly from our data, if they occured in-between our weather recording intervals... More about our weather records

Advertising

Gjøvik Weather History for the Previous 24 Hours

Scroll right to see more
 ConditionsComfort  
Time TempWeatherWind HumidityBarometerVisibility
7:00 am
Tue, Feb 28
32 °FChilly.No wind97%28.94 "HgN/A
6:00 am32 °FChilly.1 mph97%28.97 "HgN/A
5:00 am32 °FChilly.1 mph97%29.00 "HgN/A
4:00 am32 °FChilly.1 mph97%29.03 "HgN/A
3:00 am32 °FChilly.No wind97%29.09 "HgN/A
2:00 am33 °FChilly.1 mph97%29.12 "HgN/A
1:00 am33 °FChilly.1 mph97%29.15 "HgN/A
12:00 am33 °FChilly.2 mph96%29.21 "HgN/A
11:00 pm
Mon, Feb 27
33 °FChilly.1 mph96%29.23 "HgN/A
10:00 pm33 °FChilly.1 mph95%29.23 "HgN/A
9:00 pm34 °FChilly.1 mph95%29.26 "HgN/A
8:00 pm33 °FChilly.1 mph94%29.26 "HgN/A
7:00 pm34 °FChilly.1 mph93%29.26 "HgN/A
6:00 pm34 °FChilly.1 mph92%29.29 "HgN/A
5:00 pm36 °FChilly.1 mph86%29.29 "HgN/A
4:00 pm36 °FChilly.1 mph86%29.26 "HgN/A
3:00 pm39 °FChilly.No wind77%29.29 "HgN/A
2:00 pm34 °FChilly.1 mph90%29.29 "HgN/A
1:00 pm35 °FChilly.1 mph89%29.29 "HgN/A
12:00 pm33 °FChilly.1 mph95%29.29 "HgN/A
11:00 am32 °FChilly.1 mph96%29.29 "HgN/A
10:00 am31 °FChilly.1 mph96%29.26 "HgN/A
9:00 am29 °FChilly.1 mph96%29.26 "HgN/A
8:00 am29 °FChilly.1 mph96%29.26 "HgN/A
Weather by CustomWeather, © 2017

See weather overviewHow to use our weather pages